N0MR Weather Reports


time (UTC)temp
F
wind
direction
speed
knots
gust
knots
rain 1hr
in
rain 24hr
in
rain mn
in
humidity
%
barometer
mb
20260505171145 33 326 7.0 12.2 0.00 0.00 0.00 65 1008.7
20260505170144 33 326 7.0 12.2 0.00 0.00 0.00 65 1008.7
20260505164145 32 280 3.5 8.7 0.00 0.00 0.00 68 1008.6
20260505163143 31 129 0.9 11.3 0.00 0.00 0.00 69 1008.3
20260505162144 31 129 0.9 11.3 0.00 0.00 0.00 69 1008.3
20260505161144 31 58 0.9 9.6 0.00 0.00 0.00 69 1008.0
20260505160145 31 58 0.9 9.6 0.00 0.00 0.00 69 1008.0
20260505153144 30 210 7.0 15.6 0.00 0.00 0.00 67 1007.9
20260505152144 30 331 2.6 10.4 0.00 0.00 0.00 67 1007.5
20260505151146 30 331 2.6 10.4 0.00 0.00 0.00 67 1007.5
20260505150144 30 35 1.7 10.4 0.00 0.00 0.00 67 1007.2
20260505140146 29 338 3.5 12.2 0.00 0.00 0.00 63 1006.4
20260505130145 31 243 0.9 12.2 0.00 0.00 0.00 66 1005.8
20260505124145 30 261 3.5 8.7 0.00 0.00 0.00 70 1005.7
20260505123146 30 261 3.5 8.7 0.00 0.00 0.00 70 1005.7
20260505122145 29 11 4.3 7.8 0.00 0.01 0.00 72 1005.5
20260505121145 29 328 0.9 7.0 0.00 0.02 0.00 73 1005.4
20260505120146 29 328 0.9 7.0 0.00 0.02 0.00 73 1005.4
20260505115146 29 299 1.7 12.2 0.00 0.02 0.00 73 1005.1
20260505114146 29 299 1.7 12.2 0.00 0.02 0.00 73 1005.1
20260505113146 29 61 1.7 9.6 0.00 0.02 0.00 74 1004.9
20260505112145 29 61 1.7 9.6 0.00 0.02 0.00 74 1004.9
20260505111146 29 312 7.0 8.7 0.00 0.02 0.00 75 1004.6
20260505110146 29 312 7.0 8.7 0.00 0.02 0.00 75 1004.6
20260505102146 29 355 7.8 11.3 0.00 0.02 0.00 79 1004.2
20260505101146 29 215 5.2 13.9 0.00 0.02 0.00 79 1004.0
20260505100146 29 215 5.2 13.9 0.00 0.02 0.00 79 1004.0
20260505095146 30 307 1.7 10.4 0.00 0.02 0.00 79 1003.8
20260505094147 30 307 1.7 10.4 0.00 0.02 0.00 79 1003.8
20260505091146 31 192 1.7 11.3 0.00 0.02 0.00 80 1003.4
20260505090146 31 223 5.2 7.0 0.00 0.02 0.00 81 1003.1
20260505085146 31 223 5.2 7.0 0.00 0.02 0.00 81 1003.1
20260505084147 31 266 1.7 8.7 0.00 0.02 0.00 83 1003.1
20260505083146 31 266 1.7 8.7 0.00 0.02 0.00 83 1003.1
20260505082146 30 106 4.3 6.1 0.00 0.02 0.00 83 1003.0
20260505081146 30 106 4.3 6.1 0.00 0.02 0.00 83 1003.0
20260505080147 31 348 1.7 7.0 0.00 0.02 0.00 81 1002.9
20260505075147 31 348 1.7 7.0 0.00 0.02 0.00 81 1002.9
20260505074147 31 311 0.9 7.8 0.00 0.02 0.00 80 1002.9
20260505073147 31 311 0.9 7.8 0.00 0.02 0.00 80 1002.9
20260505072147 31 355 0.9 7.0 0.00 0.02 0.00 79 1002.7
20260505071147 31 355 0.9 7.0 0.00 0.02 0.00 79 1002.7
20260505070148 31 328 0.9 7.0 0.00 0.02 0.00 79 1002.7
20260505064148 32 281 0.9 7.8 0.00 0.02 0.00 80 1002.7
20260505063147 32 281 0.9 7.8 0.00 0.02 0.00 80 1002.7
20260505062148 32 300 3.5 5.2 0.00 0.02 0.00 79 1002.7
20260505061148 32 300 3.5 5.2 0.00 0.02 0.00 79 1002.7
20260505060147 32 306 1.7 6.1 0.00 0.02 0.00 79 1002.5
20260505055149 33 306 0.9 4.3 0.00 0.02 0.00 78 1002.4
20260505054148 33 306 0.9 4.3 0.00 0.02 0.00 78 1002.4
20260505053147 33 342 0.9 6.1 0.00 0.02 0.00 78 1002.3
20260505052147 33 342 0.9 6.1 0.00 0.02 0.00 78 1002.3
20260505051148 34 294 0.9 6.1 0.00 0.02 0.02 79 1002.1
20260505050148 34 294 0.9 6.1 0.00 0.02 0.02 79 1002.1
20260505041149 35 290 4.3 6.1 0.00 0.02 0.02 76 1001.7
20260505040149 35 290 4.3 6.1 0.00 0.02 0.02 76 1001.7
20260505035149 35 334 0.0 5.2 0.00 0.02 0.02 75 1001.8
20260505034148 35 334 0.0 5.2 0.00 0.02 0.02 75 1001.8
20260505033149 36 299 0.9 8.7 0.00 0.02 0.02 74 1001.7
20260505032148 36 299 0.9 8.7 0.00 0.02 0.02 74 1001.7
20260505031149 36 300 0.9 6.1 0.00 0.02 0.02 73 1001.4
20260505030149 36 300 0.9 6.1 0.00 0.02 0.02 73 1001.4
20260505025148 37 209 2.6 7.8 0.00 0.02 0.02 71 1001.2
20260505024149 37 219 2.6 6.1 0.00 0.02 0.02 71 1001.0
20260505023150 37 219 2.6 6.1 0.00 0.02 0.02 71 1001.0
20260505022149 38 243 2.6 9.6 0.00 0.02 0.02 70 1000.8
20260505021149 38 243 2.6 9.6 0.00 0.02 0.02 70 1000.8
20260505020149 39 232 1.7 6.1 0.00 0.02 0.02 65 1000.6
20260505015149 39 232 1.7 6.1 0.00 0.02 0.02 65 1000.6
20260505014149 40 315 0.9 7.8 0.00 0.02 0.02 60 1000.1
20260505013150 40 315 0.9 7.8 0.00 0.02 0.02 60 1000.1
20260505012149 40 306 0.9 7.0 0.00 0.02 0.02 59 999.9
20260505011149 40 306 0.9 7.0 0.00 0.02 0.02 59 999.9
20260505010150 40 268 3.5 9.6 0.00 0.02 0.02 58 999.7
20260505005149 40 268 3.5 9.6 0.00 0.02 0.02 58 999.7
20260505004149 41 242 1.7 13.9 0.00 0.02 0.02 58 999.5
20260505003149 41 242 1.7 13.9 0.00 0.02 0.02 58 999.5
20260505002150 41 317 1.7 16.5 0.00 0.02 0.02 59 999.4
20260505001149 41 317 1.7 16.5 0.00 0.02 0.02 59 999.4
20260505000151 41 5 7.8 9.6 0.00 0.02 0.02 60 999.2
20260504234151 41 237 5.2 12.2 0.00 0.02 0.02 62 999.0
20260504233150 42 18 3.5 15.6 0.00 0.02 0.02 61 998.8
20260504232150 42 18 3.5 15.6 0.00 0.02 0.02 61 998.8
20260504231151 43 244 4.3 11.3 0.00 0.02 0.02 59 998.4
20260504230150 43 244 4.3 11.3 0.00 0.02 0.02 59 998.4
20260504225151 42 196 5.2 13.0 0.00 0.02 0.02 59 998.2
20260504224150 42 196 5.2 13.0 0.00 0.02 0.02 59 998.2
20260504223150 44 234 10.4 8.7 0.00 0.02 0.02 59 997.8
20260504222151 44 234 10.4 8.7 0.00 0.02 0.02 59 997.8
20260504221150 43 315 4.3 13.0 0.00 0.02 0.02 60 997.7
20260504220150 43 315 4.3 13.0 0.00 0.02 0.02 60 997.7
20260504215151 43 117 1.7 13.0 0.00 0.02 0.02 60 997.3
20260504214150 43 117 1.7 13.0 0.00 0.02 0.02 60 997.3
20260504213151 45 147 2.6 13.9 0.00 0.02 0.02 56 996.9
20260504212151 45 147 2.6 13.9 0.00 0.02 0.02 56 996.9
20260504211150 44 36 5.2 11.3 0.00 0.02 0.02 55 996.6
20260504210151 44 36 5.2 11.3 0.00 0.02 0.02 55 996.6
20260504205152 45 341 3.5 13.9 0.00 0.02 0.02 54 996.3
20260504204150 45 341 3.5 13.9 0.00 0.02 0.02 54 996.3
20260504203150 46 22 4.3 17.4 0.00 0.02 0.02 52 996.2
20260504202150 48 159 3.5 12.2 0.00 0.02 0.02 51 995.7
20260504201151 48 159 3.5 12.2 0.00 0.02 0.02 51 995.7
20260504200151 47 309 4.3 13.0 0.00 0.02 0.02 55 995.4
20260504195150 47 309 4.3 13.0 0.00 0.02 0.02 55 995.4
20260504194152 47 286 7.0 16.5 0.00 0.02 0.02 55 995.4
20260504193152 47 286 7.0 16.5 0.00 0.02 0.02 55 995.4
20260504192152 48 184 6.1 13.0 0.00 0.02 0.02 53 995.0
20260504191151 48 184 6.1 13.0 0.00 0.02 0.02 53 995.0
20260504190152 47 177 5.2 15.6 0.00 0.02 0.02 56 994.8
20260504184152 47 223 4.3 11.3 0.00 0.02 0.02 54 994.2
20260504182151 47 292 1.7 13.0 0.00 0.02 0.02 58 994.2
20260504181151 47 292 1.7 13.0 0.00 0.02 0.02 58 994.2
20260504180151 48 187 5.2 13.9 0.00 0.02 0.02 54 993.6
20260504174152 47 324 6.1 15.6 0.00 0.02 0.02 59 993.3
20260504173152 47 324 6.1 15.6 0.00 0.02 0.02 59 993.3
20260504172153 47 13 3.5 16.5 0.00 0.02 0.02 59 993.3